Location: Trois-Rivi�res
(46.3500°N, 72.5500°W)
Time: 09:46:14
(UTC-04:00)

Tiangong 1 - Pass Details

Date: 07 October 2017
Orbit: 293 x 320 km, 42.8° (Epoch: 21 October)

Event Time Altitude Azimuth Distance (km) Brightness Sun altitude
Rises 18:47:20 0° 227° (SW) 2,037 5.6 -5.9°
Reaches altitude 10° 18:49:39 10° 208° (SSW) 1,203 4.0 -6.3°
Maximum altitude 18:51:38 19° 160° (SSE) 839 2.6 -6.6°
Drops below altitude 10° 18:53:37 10° 112° (ESE) 1,193 3.0 -7.0°
Enters shadow 18:53:54 - 108° (ESE) 1,284 3.1 -7.0°
